User: anonymous   Login
Location: Unspecified
(0.0000°N, 0.0000°E)
Time: 19:16:01
(UTC+00:00)
Language:

UHF F/O F4 - Orbit

View from above orbital plane
View from above orbital plane
View from above satellite
View from above satellite

Ground track
Ground track

The orbit data is extracted from the following two-line orbital elements,

1 23467U 95003A   14320.22074047 0.00000000  00000-0  00000-0 0    08
2 23467   8.6006  34.5866 0003452 160.0508 199.9159  1.00270000    03
Epoch (UTC): 16 November 2014 05:17:51
Eccentricity: 0.0003452
inclination: 8.6006°
perigee height: 35772 km
apogee height: 35801 km
right ascension of ascending node: 34.5866°
argument of perigee: 160.0508°
revolutions per day: 1.00270000
mean anomaly at epoch: 199.9159°
orbit number at epoch: 0

The dashed part of the orbit path shows where the satellite is in the earth's shadow,  

DLR